| time (UTC) | temp F | wind direction | speed MPH | gust MPH | rain 1hr in | rain 24hr in | rain mn in | humidity % | barometer mb |
| 20260507213301 | 76 | 42 | 2.0 | 4.0 | 0.00 | 0.00 | 0.00 | 88 | 1013.0 |
| 20260507212801 | 76 | 59 | 1.0 | 2.0 | 0.00 | 0.00 | 0.00 | 89 | 1013.0 |
| 20260507212306 | 76 | 43 | 2.0 | 4.0 | 0.00 | 0.00 | 0.00 | 88 | 1013.0 |
| 20260507211804 | 76 | 29 | 2.0 | 4.0 | 0.00 | 0.00 | 0.00 | 89 | 1013.0 |
| 20260507211302 | 76 | 51 | 2.0 | 4.0 | 0.00 | 0.00 | 0.00 | 89 | 1013.0 |
| 20260507210331 | 76 | 25 | 2.0 | 5.0 | 0.00 | 0.00 | 0.00 | 88 | 1013.0 |
| 20260507205801 | 76 | 65 | 1.0 | 3.0 | 0.00 | 0.00 | 0.00 | 89 | 1013.0 |
| 20260507205306 | 76 | 63 | 2.0 | 4.0 | 0.00 | 0.00 | 0.00 | 89 | 1013.0 |
| 20260507204802 | 76 | 58 | 3.0 | 4.0 | 0.00 | 0.00 | 0.00 | 89 | 1013.0 |
| 20260507204304 | 76 | 314 | 1.0 | 2.0 | 0.00 | 0.00 | 0.00 | 89 | 1013.0 |
| 20260507203801 | 76 | 60 | 2.0 | 4.0 | 0.00 | 0.00 | 0.00 | 89 | 1013.0 |
| 20260507203301 | 76 | 40 | 1.0 | 3.0 | 0.00 | 0.00 | 0.00 | 89 | 1013.0 |
| 20260507202802 | 76 | 64 | 2.0 | 3.0 | 0.00 | 0.00 | 0.00 | 89 | 1013.0 |
| 20260507202306 | 76 | 31 | 1.0 | 5.0 | 0.00 | 0.00 | 0.00 | 89 | 1013.0 |
| 20260507201803 | 76 | 18 | 1.0 | 3.0 | 0.00 | 0.00 | 0.00 | 89 | 1013.0 |
| 20260507201301 | 76 | 51 | 3.0 | 6.0 | 0.00 | 0.00 | 0.00 | 89 | 1013.0 |
| 20260507200802 | 76 | 47 | 1.0 | 3.0 | 0.00 | 0.00 | 0.00 | 89 | 1013.0 |
| 20260507200304 | 76 | 37 | 2.0 | 5.0 | 0.00 | 0.00 | 0.00 | 89 | 1013.0 |
| 20260507195802 | 76 | 231 | 0.0 | 2.0 | 0.00 | 0.00 | 0.00 | 89 | 1013.0 |
| 20260507195305 | 76 | 37 | 1.0 | 4.0 | 0.00 | 0.00 | 0.00 | 89 | 1013.0 |
| 20260507194801 | 77 | 41 | 2.0 | 4.0 | 0.00 | 0.00 | 0.00 | 89 | 1013.0 |
| 20260507194301 | 77 | 39 | 3.0 | 6.0 | 0.00 | 0.00 | 0.00 | 89 | 1013.0 |
| 20260507193801 | 77 | 49 | 2.0 | 4.0 | 0.00 | 0.00 | 0.00 | 89 | 1013.0 |
| 20260507193302 | 77 | 41 | 2.0 | 5.0 | 0.00 | 0.00 | 0.00 | 88 | 1013.0 |
| 20260507192803 | 77 | 37 | 1.0 | 3.0 | 0.00 | 0.00 | 0.00 | 88 | 1013.0 |
| 20260507192305 | 77 | 60 | 2.0 | 4.0 | 0.00 | 0.00 | 0.00 | 87 | 1014.0 |
| 20260507191808 | 77 | 42 | 0.0 | 2.0 | 0.00 | 0.00 | 0.00 | 87 | 1013.0 |
| 20260507191302 | 77 | 15 | 1.0 | 4.0 | 0.00 | 0.00 | 0.00 | 87 | 1013.0 |
| 20260507190801 | 77 | 48 | 2.0 | 4.0 | 0.00 | 0.00 | 0.00 | 87 | 1013.0 |
| 20260507190305 | 78 | 54 | 2.0 | 3.0 | 0.00 | 0.00 | 0.00 | 86 | 1014.0 |
| 20260507185805 | 78 | 45 | 4.0 | 6.0 | 0.00 | 0.00 | 0.00 | 85 | 1014.0 |
| 20260507185305 | 78 | 126 | 1.0 | 3.0 | 0.00 | 0.00 | 0.00 | 84 | 1014.0 |
| 20260507184801 | 78 | 338 | 1.0 | 3.0 | 0.00 | 0.00 | 0.00 | 83 | 1014.0 |
| 20260507184302 | 78 | 63 | 1.0 | 3.0 | 0.00 | 0.00 | 0.00 | 83 | 1014.0 |
| 20260507183802 | 78 | 4 | 1.0 | 2.0 | 0.00 | 0.00 | 0.00 | 82 | 1014.0 |
| 20260507183302 | 79 | 12 | 2.0 | 4.0 | 0.00 | 0.00 | 0.00 | 81 | 1014.0 |
| 20260507182802 | 79 | 31 | 2.0 | 4.0 | 0.00 | 0.00 | 0.00 | 79 | 1014.0 |
| 20260507182306 | 79 | 248 | 0.0 | 2.0 | 0.00 | 0.00 | 0.00 | 77 | 1014.0 |
| 20260507181803 | 79 | 51 | 3.0 | 6.0 | 0.00 | 0.00 | 0.00 | 77 | 1014.0 |
| 20260507181301 | 79 | 40 | 1.0 | 2.0 | 0.00 | 0.00 | 0.00 | 75 | 1014.0 |
| 20260507180803 | 80 | 53 | 2.0 | 6.0 | 0.00 | 0.00 | 0.00 | 74 | 1014.0 |
| 20260507180304 | 80 | 52 | 1.0 | 2.0 | 0.00 | 0.00 | 0.00 | 73 | 1014.0 |
| 20260507175803 | 80 | 33 | 2.0 | 5.0 | 0.00 | 0.00 | 0.00 | 72 | 1014.0 |
| 20260507175306 | 80 | 54 | 3.0 | 5.0 | 0.00 | 0.00 | 0.00 | 71 | 1014.0 |
| 20260507174801 | 81 | 41 | 3.0 | 7.0 | 0.00 | 0.00 | 0.00 | 71 | 1013.0 |
| 20260507174305 | 81 | 144 | 1.0 | 2.0 | 0.00 | 0.00 | 0.00 | 70 | 1013.0 |
| 20260507173802 | 81 | 56 | 1.0 | 3.0 | 0.00 | 0.00 | 0.00 | 70 | 1013.0 |
| 20260507173302 | 81 | 61 | 1.0 | 2.0 | 0.00 | 0.00 | 0.00 | 70 | 1013.0 |
| 20260507172804 | 81 | 41 | 2.0 | 7.0 | 0.00 | 0.00 | 0.00 | 70 | 1013.0 |
| 20260507172307 | 81 | 52 | 2.0 | 4.0 | 0.00 | 0.00 | 0.00 | 70 | 1013.0 |
| 20260507171804 | 81 | 55 | 1.0 | 3.0 | 0.00 | 0.00 | 0.00 | 69 | 1013.0 |
| 20260507171302 | 82 | 42 | 1.0 | 4.0 | 0.00 | 0.00 | 0.00 | 69 | 1013.0 |
| 20260507170802 | 82 | 73 | 1.0 | 4.0 | 0.00 | 0.00 | 0.00 | 69 | 1013.0 |
| 20260507170304 | 82 | 50 | 1.0 | 3.0 | 0.00 | 0.00 | 0.00 | 69 | 1013.0 |
| 20260507165808 | 82 | 236 | 0.0 | 2.0 | 0.00 | 0.00 | 0.00 | 69 | 1013.0 |
| 20260507165301 | 82 | 31 | 0.0 | 2.0 | 0.00 | 0.00 | 0.00 | 69 | 1014.0 |
| 20260507164802 | 82 | 306 | 1.0 | 2.0 | 0.00 | 0.00 | 0.00 | 68 | 1014.0 |
| 20260507164304 | 82 | 218 | 1.0 | 2.0 | 0.00 | 0.00 | 0.00 | 68 | 1014.0 |
| 20260507163805 | 82 | 146 | 0.0 | 1.0 | 0.00 | 0.00 | 0.00 | 68 | 1014.0 |
| 20260507163304 | 83 | 296 | 0.0 | 2.0 | 0.00 | 0.00 | 0.00 | 68 | 1014.0 |
| 20260507162802 | 83 | 237 | 1.0 | 2.0 | 0.00 | 0.00 | 0.00 | 68 | 1014.0 |
| 20260507162310 | 83 | 231 | 1.0 | 2.0 | 0.00 | 0.00 | 0.00 | 67 | 1014.0 |
| 20260507161803 | 83 | 168 | 1.0 | 2.0 | 0.00 | 0.00 | 0.00 | 67 | 1014.0 |
| 20260507161304 | 83 | 245 | 1.0 | 3.0 | 0.00 | 0.00 | 0.00 | 66 | 1014.0 |
| 20260507160804 | 83 | 39 | 0.0 | 1.0 | 0.00 | 0.00 | 0.00 | 65 | 1014.0 |
| 20260507160302 | 83 | 264 | 1.0 | 2.0 | 0.00 | 0.00 | 0.00 | 65 | 1013.0 |
| 20260507155803 | 83 | 0 | 0.0 | 2.0 | 0.00 | 0.00 | 0.00 | 65 | 1013.0 |
| 20260507155301 | 83 | 51 | 1.0 | 2.0 | 0.00 | 0.00 | 0.00 | 64 | 1013.0 |
| 20260507154805 | 83 | 202 | 0.0 | 2.0 | 0.00 | 0.00 | 0.00 | 64 | 1013.0 |
| 20260507154304 | 83 | 66 | 1.0 | 4.0 | 0.00 | 0.00 | 0.00 | 64 | 1013.0 |
| 20260507153802 | 83 | 132 | 0.0 | 2.0 | 0.00 | 0.00 | 0.00 | 63 | 1013.0 |
| 20260507153302 | 83 | 58 | 2.0 | 4.0 | 0.00 | 0.00 | 0.00 | 63 | 1013.0 |
| 20260507152802 | 83 | 32 | 1.0 | 3.0 | 0.00 | 0.00 | 0.00 | 63 | 1013.0 |
| 20260507152305 | 83 | 55 | 2.0 | 3.0 | 0.00 | 0.00 | 0.00 | 63 | 1013.0 |
| 20260507151802 | 84 | 23 | 2.0 | 4.0 | 0.00 | 0.00 | 0.00 | 63 | 1013.0 |
| 20260507151306 | 84 | 56 | 2.0 | 4.0 | 0.00 | 0.00 | 0.00 | 63 | 1013.0 |
| 20260507150804 | 84 | 59 | 2.0 | 4.0 | 0.00 | 0.00 | 0.00 | 62 | 1012.0 |
| 20260507150303 | 84 | 63 | 2.0 | 4.0 | 0.00 | 0.00 | 0.00 | 62 | 1012.0 |
| 20260507145804 | 84 | 354 | 0.0 | 2.0 | 0.00 | 0.00 | 0.00 | 62 | 1012.0 |
| 20260507145306 | 84 | 68 | 3.0 | 5.0 | 0.00 | 0.00 | 0.00 | 62 | 1012.0 |
| 20260507144802 | 84 | 190 | 0.0 | 1.0 | 0.00 | 0.00 | 0.00 | 62 | 1012.0 |
| 20260507144302 | 84 | 268 | 0.0 | 2.0 | 0.00 | 0.00 | 0.00 | 61 | 1012.0 |
| 20260507143338 | 85 | 64 | 1.0 | 2.0 | 0.00 | 0.00 | 0.00 | 60 | 1012.0 |
| 20260507142803 | 85 | 64 | 2.0 | 3.0 | 0.00 | 0.00 | 0.00 | 59 | 1012.0 |
| 20260507142301 | 85 | 62 | 1.0 | 2.0 | 0.00 | 0.00 | 0.00 | 58 | 1012.0 |
| 20260507141802 | 85 | 51 | 1.0 | 3.0 | 0.00 | 0.00 | 0.00 | 58 | 1011.0 |
| 20260507141302 | 85 | 27 | 1.0 | 3.0 | 0.00 | 0.00 | 0.00 | 57 | 1011.0 |
| 20260507140803 | 85 | 45 | 1.0 | 2.0 | 0.00 | 0.00 | 0.00 | 57 | 1011.0 |
| 20260507140302 | 85 | 64 | 1.0 | 3.0 | 0.00 | 0.00 | 0.00 | 56 | 1011.0 |
| 20260507135803 | 86 | 47 | 2.0 | 4.0 | 0.00 | 0.00 | 0.00 | 56 | 1011.0 |
| 20260507135305 | 86 | 0 | 0.0 | 0.0 | 0.00 | 0.00 | 0.00 | 56 | 1011.0 |
| 20260507134803 | 86 | 0 | 0.0 | 0.0 | 0.00 | 0.00 | 0.00 | 55 | 1011.0 |
| 20260507134302 | 86 | 79 | 1.0 | 2.0 | 0.00 | 0.00 | 0.00 | 55 | 1011.0 |
| 20260507133802 | 86 | 78 | 0.0 | 0.0 | 0.00 | 0.00 | 0.00 | 55 | 1011.0 |
| 20260507133302 | 86 | 56 | 3.0 | 4.0 | 0.00 | 0.00 | 0.00 | 54 | 1011.0 |
| 20260507132802 | 86 | 51 | 2.0 | 4.0 | 0.00 | 0.00 | 0.00 | 54 | 1011.0 |
| 20260507132306 | 87 | 46 | 1.0 | 2.0 | 0.00 | 0.00 | 0.00 | 54 | 1011.0 |
| 20260507131802 | 87 | 154 | 0.0 | 0.0 | 0.00 | 0.00 | 0.00 | 54 | 1011.0 |
| 20260507131303 | 87 | 176 | 0.0 | 1.0 | 0.00 | 0.00 | 0.00 | 53 | 1010.0 |
| 20260507130802 | 87 | 59 | 1.0 | 3.0 | 0.00 | 0.00 | 0.00 | 53 | 1010.0 |
| 20260507130306 | 87 | 209 | 1.0 | 2.0 | 0.00 | 0.00 | 0.00 | 53 | 1010.0 |
| 20260507125804 | 87 | 35 | 0.0 | 1.0 | 0.00 | 0.00 | 0.00 | 53 | 1010.0 |
| 20260507125301 | 88 | 110 | 1.0 | 2.0 | 0.00 | 0.00 | 0.00 | 52 | 1010.0 |
| 20260507124803 | 88 | 49 | 1.0 | 3.0 | 0.00 | 0.00 | 0.00 | 52 | 1010.0 |
| 20260507124304 | 88 | 254 | 1.0 | 3.0 | 0.00 | 0.00 | 0.00 | 52 | 1010.0 |
| 20260507123802 | 88 | 31 | 1.0 | 3.0 | 0.00 | 0.00 | 0.00 | 52 | 1010.0 |
| 20260507123302 | 89 | 72 | 1.0 | 2.0 | 0.00 | 0.00 | 0.00 | 52 | 1010.0 |
| 20260507122802 | 89 | 58 | 1.0 | 2.0 | 0.00 | 0.00 | 0.00 | 52 | 1010.0 |
| 20260507122306 | 89 | 69 | 1.0 | 2.0 | 0.00 | 0.00 | 0.00 | 52 | 1010.0 |
| 20260507121806 | 89 | 192 | 1.0 | 2.0 | 0.00 | 0.00 | 0.00 | 52 | 1010.0 |
| 20260507121301 | 90 | 49 | 2.0 | 5.0 | 0.00 | 0.00 | 0.00 | 52 | 1010.0 |
| 20260507120802 | 90 | 176 | 1.0 | 2.0 | 0.00 | 0.00 | 0.00 | 52 | 1010.0 |
| 20260507120302 | 91 | 40 | 3.0 | 6.0 | 0.00 | 0.00 | 0.00 | 51 | 1010.0 |
| 20260507115802 | 91 | 143 | 0.0 | 0.0 | 0.00 | 0.00 | 0.00 | 50 | 1010.0 |
| 20260507115307 | 92 | 270 | 1.0 | 2.0 | 0.00 | 0.00 | 0.00 | 49 | 1010.0 |
| 20260507114328 | 92 | 236 | 2.0 | 4.0 | 0.00 | 0.00 | 0.00 | 48 | 1010.0 |
| 20260507113805 | 93 | 12 | 0.0 | 1.0 | 0.00 | 0.00 | 0.00 | 48 | 1010.0 |
| 20260507113303 | 93 | 37 | 1.0 | 2.0 | 0.00 | 0.00 | 0.00 | 48 | 1010.0 |
| 20260507112802 | 93 | 189 | 1.0 | 3.0 | 0.00 | 0.00 | 0.00 | 48 | 1010.0 |
| 20260507112306 | 92 | 218 | 0.0 | 1.0 | 0.00 | 0.00 | 0.00 | 49 | 1010.0 |
| 20260507111802 | 91 | 105 | 0.0 | 2.0 | 0.00 | 0.00 | 0.00 | 50 | 1010.0 |
| 20260507111303 | 91 | 56 | 1.0 | 2.0 | 0.00 | 0.00 | 0.00 | 51 | 1010.0 |
| 20260507110802 | 91 | 64 | 2.0 | 4.0 | 0.00 | 0.00 | 0.00 | 51 | 1010.0 |
| 20260507110303 | 92 | 320 | 2.0 | 2.0 | 0.00 | 0.00 | 0.00 | 49 | 1010.0 |
| 20260507105802 | 92 | 69 | 2.0 | 3.0 | 0.00 | 0.00 | 0.00 | 49 | 1010.0 |
| 20260507105307 | 92 | 85 | 1.0 | 2.0 | 0.00 | 0.00 | 0.00 | 50 | 1010.0 |
| 20260507104801 | 92 | 56 | 0.0 | 1.0 | 0.00 | 0.00 | 0.00 | 50 | 1010.0 |
| 20260507104301 | 92 | 48 | 2.0 | 4.0 | 0.00 | 0.00 | 0.00 | 51 | 1010.0 |
| 20260507103804 | 92 | 51 | 2.0 | 5.0 | 0.00 | 0.00 | 0.00 | 51 | 1010.0 |
| 20260507103301 | 93 | 153 | 2.0 | 4.0 | 0.00 | 0.00 | 0.00 | 50 | 1010.0 |
| 20260507102805 | 92 | 354 | 1.0 | 2.0 | 0.00 | 0.00 | 0.00 | 50 | 1010.0 |
| 20260507102306 | 91 | 1 | 1.0 | 3.0 | 0.00 | 0.00 | 0.00 | 51 | 1010.0 |
| 20260507101804 | 90 | 115 | 1.0 | 2.0 | 0.00 | 0.00 | 0.00 | 52 | 1010.0 |
| 20260507101302 | 90 | 355 | 2.0 | 3.0 | 0.00 | 0.00 | 0.00 | 52 | 1010.0 |
| 20260507100805 | 90 | 56 | 1.0 | 2.0 | 0.00 | 0.00 | 0.00 | 52 | 1011.0 |
| 20260507100304 | 90 | 53 | 1.0 | 3.0 | 0.00 | 0.00 | 0.00 | 53 | 1011.0 |
| 20260507095801 | 91 | 47 | 3.0 | 5.0 | 0.00 | 0.00 | 0.00 | 53 | 1011.0 |
| 20260507095306 | 92 | 56 | 2.0 | 4.0 | 0.00 | 0.00 | 0.00 | 51 | 1011.0 |
| 20260507094803 | 92 | 58 | 2.0 | 8.0 | 0.00 | 0.00 | 0.00 | 50 | 1011.0 |
| 20260507094302 | 91 | 105 | 1.0 | 2.0 | 0.00 | 0.00 | 0.00 | 51 | 1011.0 |
| 20260507093801 | 91 | 163 | 1.0 | 2.0 | 0.00 | 0.00 | 0.00 | 52 | 1011.0 |
| 20260507093302 | 91 | 66 | 1.0 | 2.0 | 0.00 | 0.00 | 0.00 | 53 | 1011.0 |
| 20260507092806 | 91 | 157 | 2.0 | 4.0 | 0.00 | 0.00 | 0.00 | 51 | 1011.0 |
| 20260507092307 | 91 | 224 | 1.0 | 3.0 | 0.00 | 0.00 | 0.00 | 52 | 1011.0 |
| 20260507091802 | 91 | 53 | 1.0 | 3.0 | 0.00 | 0.00 | 0.00 | 52 | 1011.0 |
| 20260507091302 | 90 | 21 | 2.0 | 4.0 | 0.00 | 0.00 | 0.00 | 52 | 1011.0 |
| 20260507090802 | 90 | 249 | 2.0 | 3.0 | 0.00 | 0.00 | 0.00 | 53 | 1011.0 |
| 20260507090302 | 90 | 225 | 1.0 | 2.0 | 0.00 | 0.00 | 0.00 | 51 | 1011.0 |
| 20260507085802 | 89 | 52 | 2.0 | 5.0 | 0.00 | 0.00 | 0.00 | 53 | 1011.0 |
| 20260507085305 | 90 | 111 | 2.0 | 3.0 | 0.00 | 0.00 | 0.00 | 51 | 1011.0 |
| 20260507084802 | 89 | 147 | 1.0 | 3.0 | 0.00 | 0.00 | 0.00 | 52 | 1011.0 |
| 20260507084301 | 89 | 56 | 4.0 | 6.0 | 0.00 | 0.00 | 0.00 | 52 | 1011.0 |
| 20260507083802 | 89 | 30 | 2.0 | 4.0 | 0.00 | 0.00 | 0.00 | 53 | 1011.0 |
| 20260507083302 | 89 | 77 | 1.0 | 3.0 | 0.00 | 0.00 | 0.00 | 54 | 1011.0 |
| 20260507082801 | 89 | 61 | 2.0 | 5.0 | 0.00 | 0.00 | 0.00 | 53 | 1011.0 |
| 20260507082306 | 88 | 253 | 2.0 | 3.0 | 0.00 | 0.00 | 0.00 | 53 | 1011.0 |
| 20260507081804 | 88 | 146 | 2.0 | 3.0 | 0.00 | 0.00 | 0.00 | 54 | 1012.0 |
| 20260507081302 | 88 | 27 | 2.0 | 3.0 | 0.00 | 0.00 | 0.00 | 54 | 1012.0 |
| 20260507080801 | 88 | 35 | 3.0 | 5.0 | 0.00 | 0.00 | 0.00 | 54 | 1012.0 |
| 20260507080302 | 88 | 248 | 1.0 | 2.0 | 0.00 | 0.00 | 0.00 | 54 | 1012.0 |
| 20260507075801 | 89 | 27 | 2.0 | 4.0 | 0.00 | 0.00 | 0.00 | 56 | 1012.0 |
| 20260507075306 | 90 | 337 | 2.0 | 3.0 | 0.00 | 0.00 | 0.00 | 53 | 1012.0 |
| 20260507074804 | 90 | 98 | 2.0 | 3.0 | 0.00 | 0.00 | 0.00 | 53 | 1012.0 |
| 20260507074302 | 89 | 344 | 1.0 | 3.0 | 0.00 | 0.00 | 0.00 | 53 | 1012.0 |
| 20260507073801 | 89 | 17 | 1.0 | 2.0 | 0.00 | 0.00 | 0.00 | 54 | 1012.0 |
| 20260507073306 | 88 | 163 | 1.0 | 2.0 | 0.00 | 0.00 | 0.00 | 55 | 1012.0 |
| 20260507072804 | 88 | 203 | 2.0 | 5.0 | 0.00 | 0.00 | 0.00 | 55 | 1012.0 |
| 20260507072306 | 87 | 44 | 1.0 | 2.0 | 0.00 | 0.00 | 0.00 | 56 | 1012.0 |
| 20260507071801 | 87 | 90 | 1.0 | 2.0 | 0.00 | 0.00 | 0.00 | 57 | 1013.0 |
| 20260507071303 | 86 | 293 | 0.0 | 2.0 | 0.00 | 0.00 | 0.00 | 58 | 1013.0 |
| 20260507070801 | 87 | 345 | 2.0 | 3.0 | 0.00 | 0.00 | 0.00 | 58 | 1013.0 |
| 20260507070301 | 87 | 101 | 0.0 | 2.0 | 0.00 | 0.00 | 0.00 | 58 | 1013.0 |
| 20260507065802 | 87 | 46 | 2.0 | 4.0 | 0.00 | 0.00 | 0.00 | 57 | 1013.0 |
| 20260507065305 | 88 | 40 | 3.0 | 5.0 | 0.00 | 0.00 | 0.00 | 57 | 1013.0 |
| 20260507064802 | 88 | 236 | 1.0 | 3.0 | 0.00 | 0.00 | 0.00 | 58 | 1013.0 |
| 20260507064304 | 88 | 186 | 2.0 | 4.0 | 0.00 | 0.00 | 0.00 | 57 | 1013.0 |
| 20260507063804 | 88 | 172 | 2.0 | 3.0 | 0.00 | 0.00 | 0.00 | 55 | 1013.0 |
| 20260507063301 | 88 | 84 | 1.0 | 2.0 | 0.00 | 0.00 | 0.00 | 56 | 1013.0 |
| 20260507062802 | 87 | 79 | 2.0 | 4.0 | 0.00 | 0.00 | 0.00 | 57 | 1013.0 |
| 20260507062306 | 86 | 295 | 0.0 | 2.0 | 0.00 | 0.00 | 0.00 | 59 | 1013.0 |
| 20260507061804 | 85 | 225 | 1.0 | 2.0 | 0.00 | 0.00 | 0.00 | 60 | 1013.0 |
| 20260507061302 | 85 | 163 | 2.0 | 4.0 | 0.00 | 0.00 | 0.00 | 62 | 1014.0 |
| 20260507060801 | 85 | 166 | 2.0 | 4.0 | 0.00 | 0.00 | 0.00 | 62 | 1014.0 |
| 20260507060302 | 84 | 139 | 1.0 | 3.0 | 0.00 | 0.00 | 0.00 | 62 | 1014.0 |
| 20260507055801 | 84 | 175 | 2.0 | 4.0 | 0.00 | 0.00 | 0.00 | 63 | 1014.0 |
| 20260507055305 | 85 | 209 | 3.0 | 5.0 | 0.00 | 0.00 | 0.00 | 61 | 1014.0 |
| 20260507054804 | 85 | 20 | 1.0 | 2.0 | 0.00 | 0.00 | 0.00 | 62 | 1014.0 |
| 20260507054302 | 85 | 103 | 2.0 | 3.0 | 0.00 | 0.00 | 0.00 | 62 | 1014.0 |
| 20260507053802 | 85 | 10 | 2.0 | 3.0 | 0.00 | 0.00 | 0.00 | 61 | 1014.0 |
| 20260507053303 | 85 | 29 | 2.0 | 2.0 | 0.00 | 0.00 | 0.00 | 62 | 1014.0 |
| 20260507052805 | 85 | 196 | 3.0 | 5.0 | 0.00 | 0.00 | 0.00 | 61 | 1014.0 |
| 20260507052306 | 84 | 0 | 0.0 | 0.0 | 0.00 | 0.00 | 0.00 | 65 | 1014.0 |
| 20260507051802 | 83 | 146 | 2.0 | 3.0 | 0.00 | 0.00 | 0.00 | 64 | 1014.0 |
| 20260507051306 | 82 | 57 | 2.0 | 3.0 | 0.00 | 0.00 | 0.00 | 66 | 1014.0 |
| 20260507050803 | 83 | 186 | 2.0 | 4.0 | 0.00 | 0.00 | 0.00 | 67 | 1014.0 |
| 20260507050302 | 83 | 211 | 2.0 | 3.0 | 0.00 | 0.00 | 0.00 | 67 | 1014.0 |
| 20260507045806 | 83 | 140 | 1.0 | 3.0 | 0.00 | 0.00 | 0.00 | 68 | 1014.0 |
| 20260507045306 | 83 | 220 | 3.0 | 6.0 | 0.00 | 0.00 | 0.00 | 68 | 1014.0 |
| 20260507044802 | 83 | 179 | 2.0 | 4.0 | 0.00 | 0.00 | 0.00 | 67 | 1014.0 |
| 20260507044302 | 83 | 141 | 3.0 | 6.0 | 0.00 | 0.00 | 0.00 | 65 | 1014.0 |
| 20260507043802 | 83 | 179 | 2.0 | 3.0 | 0.00 | 0.00 | 0.00 | 66 | 1014.0 |
| 20260507043301 | 83 | 48 | 2.0 | 3.0 | 0.00 | 0.00 | 0.00 | 66 | 1014.0 |
| 20260507042803 | 82 | 50 | 1.0 | 3.0 | 0.00 | 0.00 | 0.00 | 68 | 1014.0 |
| 20260507042301 | 82 | 213 | 2.0 | 3.0 | 0.00 | 0.00 | 0.00 | 70 | 1014.0 |
| 20260507041802 | 81 | 192 | 2.0 | 3.0 | 0.00 | 0.00 | 0.00 | 72 | 1014.0 |
| 20260507041304 | 81 | 233 | 1.0 | 2.0 | 0.00 | 0.00 | 0.00 | 72 | 1014.0 |
| 20260507040802 | 81 | 271 | 1.0 | 3.0 | 0.00 | 0.00 | 0.00 | 72 | 1014.0 |
| 20260507040302 | 80 | 167 | 2.0 | 4.0 | 0.00 | 0.00 | 0.00 | 73 | 1015.0 |
| 20260507035803 | 80 | 203 | 1.0 | 2.0 | 0.00 | 0.00 | 0.00 | 73 | 1015.0 |
| 20260507035306 | 79 | 98 | 0.0 | 2.0 | 0.00 | 0.00 | 0.00 | 74 | 1014.0 |
| 20260507034802 | 79 | 193 | 1.0 | 3.0 | 0.00 | 0.00 | 0.00 | 76 | 1015.0 |
| 20260507034304 | 79 | 192 | 1.0 | 4.0 | 0.00 | 0.00 | 0.00 | 77 | 1015.0 |
| 20260507033802 | 79 | 214 | 1.0 | 4.0 | 0.00 | 0.00 | 0.00 | 78 | 1014.0 |
| 20260507033302 | 79 | 175 | 2.0 | 3.0 | 0.00 | 0.00 | 0.00 | 77 | 1014.0 |
| 20260507032802 | 79 | 192 | 1.0 | 2.0 | 0.00 | 0.00 | 0.00 | 76 | 1014.0 |
| 20260507032305 | 79 | 188 | 2.0 | 3.0 | 0.00 | 0.00 | 0.00 | 77 | 1014.0 |
| 20260507031803 | 79 | 224 | 1.0 | 3.0 | 0.00 | 0.00 | 0.00 | 77 | 1014.0 |
| 20260507031303 | 79 | 148 | 0.0 | 1.0 | 0.00 | 0.00 | 0.00 | 78 | 1014.0 |
| 20260507030804 | 79 | 170 | 1.0 | 3.0 | 0.00 | 0.00 | 0.00 | 77 | 1014.0 |
| 20260507030306 | 79 | 309 | 1.0 | 2.0 | 0.00 | 0.00 | 0.00 | 79 | 1014.0 |
| 20260507025802 | 79 | 157 | 2.0 | 3.0 | 0.00 | 0.00 | 0.00 | 78 | 1014.0 |
| 20260507025302 | 79 | 285 | 1.0 | 3.0 | 0.00 | 0.00 | 0.00 | 79 | 1014.0 |
| 20260507024802 | 78 | 49 | 1.0 | 3.0 | 0.00 | 0.00 | 0.00 | 79 | 1014.0 |
| 20260507024303 | 78 | 187 | 1.0 | 2.0 | 0.00 | 0.00 | 0.00 | 81 | 1014.0 |
| 20260507023802 | 77 | 330 | 1.0 | 2.0 | 0.00 | 0.00 | 0.00 | 81 | 1014.0 |
| 20260507023304 | 77 | 202 | 2.0 | 3.0 | 0.00 | 0.00 | 0.00 | 82 | 1014.0 |
| 20260507022801 | 77 | 346 | 1.0 | 2.0 | 0.00 | 0.00 | 0.00 | 82 | 1014.0 |
| 20260507022301 | 76 | 276 | 1.0 | 2.0 | 0.00 | 0.00 | 0.00 | 83 | 1014.0 |
| 20260507021803 | 76 | 196 | 1.0 | 2.0 | 0.00 | 0.00 | 0.00 | 84 | 1014.0 |
| 20260507021304 | 75 | 197 | 1.0 | 3.0 | 0.00 | 0.00 | 0.00 | 85 | 1014.0 |
| 20260507020802 | 75 | 226 | 1.0 | 2.0 | 0.00 | 0.00 | 0.00 | 86 | 1014.0 |
| 20260507020303 | 75 | 195 | 1.0 | 3.0 | 0.00 | 0.00 | 0.00 | 87 | 1014.0 |
| 20260507015803 | 74 | 227 | 0.0 | 2.0 | 0.00 | 0.00 | 0.00 | 88 | 1014.0 |
| 20260507015306 | 74 | 346 | 0.0 | 1.0 | 0.00 | 0.00 | 0.00 | 88 | 1014.0 |
| 20260507014802 | 74 | 197 | 2.0 | 3.0 | 0.00 | 0.00 | 0.00 | 88 | 1014.0 |
| 20260507014301 | 74 | 321 | 1.0 | 2.0 | 0.00 | 0.00 | 0.00 | 88 | 1014.0 |
| 20260507013802 | 74 | 176 | 2.0 | 4.0 | 0.00 | 0.00 | 0.00 | 88 | 1013.0 |
| 20260507013302 | 74 | 210 | 0.0 | 2.0 | 0.00 | 0.00 | 0.00 | 89 | 1013.0 |
| 20260507012802 | 74 | 355 | 0.0 | 2.0 | 0.00 | 0.00 | 0.00 | 89 | 1013.0 |
| 20260507012305 | 74 | 198 | 0.0 | 1.0 | 0.00 | 0.00 | 0.00 | 90 | 1013.0 |
| 20260507011805 | 73 | 271 | 0.0 | 2.0 | 0.00 | 0.00 | 0.00 | 91 | 1013.0 |
| 20260507011304 | 73 | 237 | 0.0 | 2.0 | 0.00 | 0.00 | 0.00 | 91 | 1013.0 |
| 20260507010802 | 73 | 12 | 0.0 | 2.0 | 0.00 | 0.00 | 0.00 | 91 | 1013.0 |
| 20260507010301 | 73 | 317 | 0.0 | 1.0 | 0.00 | 0.00 | 0.00 | 91 | 1013.0 |
| 20260507005802 | 73 | 244 | 0.0 | 1.0 | 0.00 | 0.00 | 0.00 | 91 | 1013.0 |
| 20260507005305 | 73 | 0 | 0.0 | 0.0 | 0.00 | 0.00 | 0.00 | 91 | 1013.0 |
| 20260507004802 | 73 | 41 | 2.0 | 4.0 | 0.00 | 0.00 | 0.00 | 90 | 1013.0 |
| 20260507004304 | 73 | 2 | 0.0 | 1.0 | 0.00 | 0.00 | 0.00 | 90 | 1013.0 |
| 20260507003803 | 73 | 253 | 1.0 | 3.0 | 0.00 | 0.00 | 0.00 | 90 | 1013.0 |
| 20260507003303 | 74 | 261 | 1.0 | 3.0 | 0.00 | 0.00 | 0.00 | 90 | 1013.0 |
| 20260507002803 | 74 | 6 | 0.0 | 2.0 | 0.00 | 0.00 | 0.00 | 90 | 1013.0 |
| 20260507002305 | 74 | 261 | 0.0 | 1.0 | 0.00 | 0.00 | 0.00 | 89 | 1013.0 |
| 20260507001803 | 74 | 290 | 0.0 | 1.0 | 0.00 | 0.00 | 0.00 | 89 | 1013.0 |
| 20260507001302 | 74 | 315 | 1.0 | 2.0 | 0.00 | 0.00 | 0.00 | 89 | 1013.0 |
| 20260507000804 | 74 | 233 | 1.0 | 3.0 | 0.00 | 0.00 | 0.00 | 90 | 1013.0 |
| 20260507000303 | 74 | 276 | 1.0 | 2.0 | 0.00 | 0.00 | 0.00 | 90 | 1013.0 |
| 20260506235802 | 74 | 280 | 1.0 | 2.0 | 0.00 | 0.00 | 0.00 | 90 | 1012.0 |
| 20260506235302 | 74 | 294 | 1.0 | 2.0 | 0.00 | 0.00 | 0.00 | 90 | 1013.0 |
| 20260506234805 | 74 | 319 | 1.0 | 2.0 | 0.00 | 0.00 | 0.00 | 90 | 1012.0 |
| 20260506234303 | 74 | 189 | 1.0 | 3.0 | 0.00 | 0.00 | 0.00 | 90 | 1012.0 |
| 20260506233327 | 74 | 282 | 1.0 | 3.0 | 0.00 | 0.00 | 0.00 | 90 | 1012.0 |
| 20260506232802 | 74 | 31 | 2.0 | 3.0 | 0.00 | 0.00 | 0.00 | 90 | 1012.0 |
| 20260506232306 | 74 | 40 | 1.0 | 2.0 | 0.00 | 0.00 | 0.00 | 90 | 1012.0 |
| 20260506231802 | 74 | 2 | 1.0 | 3.0 | 0.00 | 0.00 | 0.00 | 90 | 1012.0 |
| 20260506231302 | 74 | 260 | 2.0 | 2.0 | 0.00 | 0.00 | 0.00 | 90 | 1012.0 |
| 20260506230803 | 74 | 137 | 1.0 | 3.0 | 0.00 | 0.00 | 0.00 | 90 | 1012.0 |
| 20260506230303 | 74 | 318 | 1.0 | 2.0 | 0.00 | 0.00 | 0.00 | 89 | 1012.0 |
| 20260506225804 | 74 | 354 | 0.0 | 1.0 | 0.00 | 0.00 | 0.00 | 89 | 1012.0 |
| 20260506225305 | 74 | 92 | 2.0 | 4.0 | 0.00 | 0.00 | 0.00 | 89 | 1012.0 |
| 20260506224801 | 74 | 39 | 0.0 | 1.0 | 0.00 | 0.00 | 0.00 | 89 | 1012.0 |
| 20260506224304 | 74 | 309 | 0.0 | 2.0 | 0.00 | 0.00 | 0.00 | 89 | 1012.0 |
| 20260506223803 | 74 | 293 | 1.0 | 2.0 | 0.00 | 0.00 | 0.00 | 89 | 1011.0 |
| 20260506223304 | 75 | 231 | 1.0 | 3.0 | 0.00 | 0.00 | 0.00 | 89 | 1011.0 |
| 20260506222802 | 75 | 274 | 1.0 | 2.0 | 0.00 | 0.00 | 0.00 | 89 | 1011.0 |
| 20260506222306 | 75 | 202 | 1.0 | 3.0 | 0.00 | 0.00 | 0.00 | 89 | 1011.0 |
| 20260506221804 | 75 | 227 | 1.0 | 2.0 | 0.00 | 0.00 | 0.00 | 89 | 1011.0 |
| 20260506221302 | 75 | 256 | 1.0 | 3.0 | 0.00 | 0.00 | 0.00 | 89 | 1011.0 |
| 20260506220801 | 75 | 205 | 1.0 | 3.0 | 0.00 | 0.00 | 0.00 | 89 | 1011.0 |
| 20260506220301 | 75 | 297 | 1.0 | 2.0 | 0.00 | 0.00 | 0.00 | 90 | 1011.0 |
| 20260506215805 | 75 | 56 | 1.0 | 2.0 | 0.00 | 0.00 | 0.00 | 89 | 1011.0 |
| 20260506215305 | 75 | 309 | 1.0 | 3.0 | 0.00 | 0.00 | 0.00 | 89 | 1011.0 |
| 20260506214803 | 75 | 56 | 1.0 | 3.0 | 0.00 | 0.00 | 0.00 | 89 | 1011.0 |
| 20260506214306 | 75 | 287 | 0.0 | 1.0 | 0.00 | 0.00 | 0.00 | 89 | 1011.0 |
| 20260506213803 | 75 | 281 | 1.0 | 4.0 | 0.00 | 0.00 | 0.00 | 89 | 1011.0 |